Cloud_Cover
0 0 60 98 75 44 9 0 0 0 0 0 0 0 2 4 0 42 52 4 0 0 75 100 100 51 27 53 100 100 94 68 100 100 100 94 70 39 100 100 100 100 100 100 86 38 5 5 5
7 100 99 87 80 77 5 0 0 0 0 3 2 75 9 3 0 11 15 22 0 0 2 53 100 99 100 68 84 100 100 100 99 99 98 100 97 100 100 100 100 81 69 100 100 48 37 50 73
5 37 54 93 76 60 15 3 0 0 0 3 3 0 0 0 3 20 1 25 5 1 0 0 6 14 100 100 48 43 100 100 95 98 100 100 99 100 100 100 100 50 100 99 56 32 63 17 5
8 36 99 100 100 58 4 1 5 0 0 0 0 0 0 0 12 5 2 42 0 5 5 0 0 0 0 81 100 33 68 100 100 100 100 100 100 95 98 77 100 100 100 100 8 15 5 5 16
3 100 100 100 100 100 80 0 7 0 0 0 0 0 0 0 0 4 2 5 7 11 5 5 2 0 0 0 1 13 79 72 100 100 100 100 98 100 92 80 84 100 100 50 18 62 5 5 7
94 100 100 100 100 100 70 24 100 27 0 0 0 0 0 0 0 4 5 3 63 5 13 92 98 1 0 0 1 0 5 7 97 100 100 100 97 100 98 98 100 100 87 5 90 62 19 34 100
10 100 100 100 100 100 39 84 0 100 38 0 0 0 0 0 0 0 0 0 26 1 5 23 97 5 5 0 3 3 3 6 66 96 100 100 100 100 100 99 81 88 100 92 100 90 18 51 35
24 62 100 100 100 100 71 100 30 10 2 0 0 0 0 0 0 0 0 0 81 0 5 5 88 61 94 0 0 17 5 5 6 5 47 12 91 100 100 100 100 96 96 43 100 100 66 5 5
1 38 99 100 100 100 100 100 80 5 8 2 0 0 0 0 0 0 0 0 48 2 0 14 12 82 100 2 0 4 5 20 99 25 4 5 22 76 100 100 100 99 82 100 100 100 40 12 4
1 67 100 100 100 100 100 100 35 7 99 71 100 86 3 60 0 0 0 0 0 3 16 16 84 42 92 20 0 0 4 4 100 100 100 14 5 5 6 43 100 97 100 100 100 88 71 15 5
35 83 22 100 100 100 100 32 100 25 76 89 100 100 76 5 0 0 0 0 0 0 24 27 5 37 50 23 0 1 0 0 44 100 60 100 98 100 69 52 61 14 60 100 100 19 12 5 5
0 3 5 4 3 10 91 58 13 1 5 98 100 100 94 0 0 0 0 0 0 0 0 6 5 42 24 61 4 0 0 7 5 86 23 97 100 99 70 95 9 5 5 5 5 0 5 5 5
0 0 0 0 0 0 0 3 5 4 0 70 98 96 15 0 0 0 0 0 0 0 0 0 0 22 24 95 96 39 96 16 5 3 3 1 5 61 5 99 68 6 4 3 43 5 0 5 16
0 0 0 0 0 0 0 0 4 4 2 96 52 1 0 0 0 0 0 0 0 0 0 0 0 4 52 74 100 100 25 72 2 6 0 0 13 100 16 46 55 5 8 5 5 7 98 5 76
0 0 0 0 0 0 0 0 0 0 3 8 6 0 0 0 0 0 0 0 0 0 0 4 4 0 0 8 8 46 100 95 98 99 100 21 2 6 99 8 5 43 5 86 98 22 6 33 93
0 0 0 0 0 0 0 0 0 1 3 61 88 81 23 0 0 4 0 0 0 0 0 0 5 9 5 0 0 0 4 44 37 69 100 14 5 5 5 5 5 15 93 67 85 76 34 24 5
0 0 0 0 0 0 0 0 0 2 3 98 61 100 90 0 0 3 5 1 0 0 0 0 0 2 9 2 2 0 0 0 1 5 26 50 28 6 5 5 5 84 52 100 100 66 100 97 21
0 0 0 0 0 0 2 0 0 0 0 36 95 58 40 2 15 1 4 3 3 1 0 0 2 2 0 2 5 0 0 0 0 0 0 5 93 34 4 3 98 100 100 89 27 35 92 100 94
0 0 0 0 0 0 0 0 5 9 64 0 3 100 96 8 69 41 0 5 0 0 1 0 0 4 5 1 5 5 0 3 5 0 0 3 20 85 48 5 100 100 100 100 83 23 94 96 74
0 0 0 0 0 0 0 0 0 0 0 4 1 0 0 0 2 4 5 2 4 0 0 0 0 0 0 0 0 5 0 4 5 5 5 5 1 5 77 100 98 100 100 57 78 28 22 100 100
0 0 0 0 0 0 0 0 0 0 0 5 1 0 2 0 0 4 5 0 5 2 1 0 0 0 0 1 0 1 0 0 59 9 3 10 62 76 5 13 96 96 98 26 32 36 97 5 61
0 0 0 0 0 0 0 0 0 0 35 27 94 2 0 0 0 0 1 0 0 0 4 0 0 0 0 5 2 0 5 0 0 0 0 1 67 43 6 73 98 85 94 45 81 55 100 100 99
0 0 0 0 0 0 0 1 1 98 100 100 96 98 90 2 0 0 0 0 0 0 4 5 0 0 0 5 4 4 2 2 0 0 0 0 82 99 100 97 100 100 100 99 94 27 6 74 100
0 0 0 0 0 0 32 45 50 35 100 60 94 13 18 32 3 0 0 0 0 0 1 0 0 0 0 0 10 0 0 3 0 0 11 85 26 57 97 100 100 100 100 100 99 64 5 38 100
0 0 0 2 5 29 99 77 3 56 96 10 84 100 58 100 100 100 10 0 0 0 0 19 3 4 0 0 2 2 0 0 4 0 0 48 92 33 100 88 100 100 100 100 100 11 5 83 100
0 0 0 4 4 0 2 71 21 19 19 79 100 100 100 49 98 100 8 0 0 2 1 16 3 5 0 0 0 0 0 0 4 0 0 0 39 9 60 84 100 98 84 52 58 53 26 100 100
0 0 5 5 1 14 7 21 100 49 100 100 100 100 52 99 94 7 96 7 0 0 0 0 0 5 0 0 0 0 0 0 4 0 0 0 0 5 0 0 0 0 4 0 13 6 5 21 47
42 3 1 20 86 7 88 10 73 36 100 68 100 97 100 100 100 100 57 99 0 0 0 0 0 0 0 0 0 0 0 0 0 1 0 0 0 0 0 0 0 0 0 0 0 5 5 5 6
53 100 12 1 28 5 39 97 8 2 100 61 92 100 100 100 100 100 100 37 0 0 0 0 0 0 0 0 0 0 0 0 0 0 0 0 0 0 0 0 0 0 0 0 0 0 4 5 1
17 5 5 5 4 99 90 8 31 1 32 75 100 100 100 100 100 100 100 100 81 0 0 0 0 0 0 0 0 0 15 0 0 0 0 0 0 0 0 0 0 0 0 0 0 0 0 5 1